TimeEDT,TemperatureF,Dew PointF,Humidity,Sea Level PressureIn,VisibilityMPH,Wind Direction,Wind SpeedMPH,Gust SpeedMPH,PrecipitationIn,Events,Conditions,WindDirDegrees,DateUTC
12:53 AM,41.0,39.9,96,30.05,4.0,Calm,Calm,-,N/A,,Clear,0,2013-09-25 04:53:00
12:58 AM,41.0,39.2,93,30.04,1.2,Calm,Calm,-,N/A,,Clear,0,2013-09-25 04:58:00
1:08 AM,39.2,37.4,93,30.04,4.0,Calm,Calm,-,N/A,,Clear,0,2013-09-25 05:08:00
1:53 AM,37.0,37.0,100,30.06,10.0,Calm,Calm,-,N/A,,Clear,0,2013-09-25 05:53:00
2:40 AM,37.4,37.4,100,30.05,1.8,Calm,Calm,-,N/A,,Clear,0,2013-09-25 06:40:00
2:43 AM,37.4,35.6,93,30.05,1.0,Calm,Calm,-,N/A,,Clear,0,2013-09-25 06:43:00
2:48 AM,35.6,35.6,100,30.05,0.5,Calm,Calm,-,N/A,Fog,Fog,0,2013-09-25 06:48:00
2:53 AM,35.1,35.1,100,30.06,0.5,Calm,Calm,-,N/A,Fog,Fog,0,2013-09-25 06:53:00
3:01 AM,35.6,33.8,93,30.05,1.2,Calm,Calm,-,N/A,,Partly Cloudy,0,2013-09-25 07:01:00
3:04 AM,33.8,33.8,100,30.05,4.0,Calm,Calm,-,N/A,,Partly Cloudy,0,2013-09-25 07:04:00
3:26 AM,35.6,35.6,100,30.05,1.8,Calm,Calm,-,N/A,,Clear,0,2013-09-25 07:26:00
3:34 AM,35.6,35.6,100,30.04,3.0,East,3.5,-,N/A,,Clear,80,2013-09-25 07:34:00
3:53 AM,34.0,33.1,96,30.06,10.0,NE,3.5,-,N/A,,Clear,50,2013-09-25 07:53:00
4:19 AM,35.6,35.6,100,30.04,1.5,Calm,Calm,-,N/A,,Clear,0,2013-09-25 08:19:00
4:28 AM,37.4,37.4,100,30.04,2.0,NE,3.5,-,N/A,,Clear,50,2013-09-25 08:28:00
4:35 AM,35.6,35.6,100,30.04,1.5,Calm,Calm,-,N/A,,Clear,0,2013-09-25 08:35:00
4:44 AM,35.6,35.6,100,30.04,1.0,Calm,Calm,-,N/A,,Clear,0,2013-09-25 08:44:00
4:53 AM,36.0,35.1,97,30.06,0.8,Calm,Calm,-,N/A,,Clear,0,2013-09-25 08:53:00
5:28 AM,33.8,33.8,100,30.04,0.2,East,3.5,-,N/A,Fog,Fog,80,2013-09-25 09:28:00
5:53 AM,34.0,34.0,100,30.06,0.5,ENE,3.5,-,N/A,Fog,Fog,60,2013-09-25 09:53:00
6:00 AM,33.8,33.8,100,30.05,1.2,ENE,3.5,-,N/A,,Scattered Clouds,60,2013-09-25 10:00:00
6:12 AM,35.6,35.6,100,30.04,2.0,Calm,Calm,-,N/A,,Clear,0,2013-09-25 10:12:00
6:20 AM,33.8,33.8,100,30.04,10.0,Calm,Calm,-,N/A,,Partly Cloudy,0,2013-09-25 10:20:00
6:45 AM,33.8,32.0,93,30.04,1.5,Calm,Calm,-,N/A,,Partly Cloudy,0,2013-09-25 10:45:00
6:49 AM,33.8,33.8,100,30.05,0.8,Calm,Calm,-,N/A,,Mist,0,2013-09-25 10:49:00
6:53 AM,34.0,34.0,100,30.06,0.8,Calm,Calm,-,N/A,,Clear,0,2013-09-25 10:53:00
7:12 AM,33.8,33.8,100,30.05,0.5,Calm,Calm,-,N/A,Fog,Fog,0,2013-09-25 11:12:00
7:53 AM,33.1,33.1,100,30.08,0.2,Calm,Calm,-,N/A,Fog,Fog,0,2013-09-25 11:53:00
8:39 AM,35.6,35.6,100,30.05,1.2,Calm,Calm,-,N/A,,Mostly Cloudy,0,2013-09-25 12:39:00
8:43 AM,37.4,37.4,100,30.05,3.0,Calm,Calm,-,N/A,,Overcast,0,2013-09-25 12:43:00
8:53 AM,37.9,37.9,100,30.08,2.5,Calm,Calm,-,N/A,,Overcast,0,2013-09-25 12:53:00
9:06 AM,39.2,39.2,100,30.05,7.0,Calm,Calm,-,N/A,,Mostly Cloudy,0,2013-09-25 13:06:00
9:18 AM,42.8,42.8,100,30.05,10.0,Calm,Calm,-,N/A,,Scattered Clouds,0,2013-09-25 13:18:00
9:53 AM,48.9,46.0,90,30.08,10.0,Calm,Calm,-,N/A,,Clear,0,2013-09-25 13:53:00
10:53 AM,57.9,48.0,70,30.08,10.0,Calm,Calm,-,N/A,,Clear,0,2013-09-25 14:53:00
11:53 AM,61.0,48.0,62,30.07,10.0,Calm,Calm,-,N/A,,Clear,0,2013-09-25 15:53:00
12:53 PM,62.1,48.9,62,30.06,10.0,WNW,6.9,-,N/A,,Clear,290,2013-09-25 16:53:00
1:53 PM,64.0,48.0,56,30.05,10.0,West,9.2,-,N/A,,Clear,270,2013-09-25 17:53:00
2:53 PM,64.9,48.9,56,30.04,10.0,WNW,3.5,-,N/A,,Clear,290,2013-09-25 18:53:00
3:53 PM,66.9,48.0,51,30.04,10.0,Variable,3.5,-,N/A,,Clear,0,2013-09-25 19:53:00
4:53 PM,69.1,48.0,47,30.03,10.0,SE,8.1,-,N/A,,Clear,130,2013-09-25 20:53:00
5:53 PM,69.1,46.9,45,30.03,10.0,ESE,6.9,-,N/A,,Clear,110,2013-09-25 21:53:00
6:53 PM,66.0,50.0,56,30.03,10.0,SSE,4.6,-,N/A,,Clear,150,2013-09-25 22:53:00
7:53 PM,57.9,52.0,81,30.03,10.0,Calm,Calm,-,N/A,,Clear,0,2013-09-25 23:53:00
8:53 PM,51.1,48.9,92,30.05,10.0,Calm,Calm,-,N/A,,Clear,0,2013-09-26 00:53:00
9:53 PM,48.0,46.9,96,30.05,10.0,Calm,Calm,-,N/A,,Clear,0,2013-09-26 01:53:00
10:02 PM,46.4,46.4,100,30.03,1.8,Calm,Calm,-,N/A,,Clear,0,2013-09-26 02:02:00
10:06 PM,46.4,44.6,93,30.03,1.0,Calm,Calm,-,N/A,,Clear,0,2013-09-26 02:06:00
10:12 PM,44.6,44.6,100,30.03,1.8,Calm,Calm,-,N/A,,Clear,0,2013-09-26 02:12:00
10:15 PM,44.6,42.8,93,30.03,3.0,Calm,Calm,-,N/A,,Clear,0,2013-09-26 02:15:00
10:18 PM,44.6,42.8,93,30.03,1.5,Calm,Calm,-,N/A,,Clear,0,2013-09-26 02:18:00
10:24 PM,44.6,42.8,93,30.03,0.8,Calm,Calm,-,N/A,,Clear,0,2013-09-26 02:24:00
10:31 PM,44.6,44.6,100,30.04,1.0,Calm,Calm,-,N/A,,Mist,0,2013-09-26 02:31:00
10:42 PM,44.6,44.6,100,30.04,0.5,East,3.5,-,N/A,Fog,Fog,90,2013-09-26 02:42:00
10:53 PM,44.1,43.0,96,30.06,0.5,ESE,4.6,-,N/A,Fog,Fog,110,2013-09-26 02:53:00
11:07 PM,42.8,42.8,100,30.04,1.2,East,3.5,-,N/A,,Clear,90,2013-09-26 03:07:00
11:22 PM,42.8,42.8,100,30.04,4.0,East,5.8,-,N/A,,Clear,100,2013-09-26 03:22:00
11:53 PM,46.0,46.0,100,30.05,10.0,East,4.6,-,N/A,,Clear,90,2013-09-26 03:53:00